Temperature
6 5 5 6 6 7 6 6 6 7 7 7 6 6 7 7 6 6 6 6 7 7 8 8 8 8 9 9 9 9 10 10 10 10 10 10 10 10 10 10 10 10 10 10
5 5 6 6 6 6 6 6 6 6 6 7 6 6 6 6 6 6 6 6 7 7 7 8 8 8 8 8 9 9 9 9 9 9 9 9 9 9 9 9 9 9 9 9
5 6 6 6 6 6 6 6 6 6 6 6 6 6 6 6 6 6 6 6 6 7 7 7 7 8 8 8 8 8 9 9 9 9 9 9 9 9 9 9 9 9 9 9
5 5 6 6 6 6 6 6 6 6 5 5 5 5 6 5 5 5 5 5 6 6 6 7 7 7 7 7 8 8 8 8 8 8 8 8 8 8 8 8 8 8 8 8
5 5 5 5 6 5 5 6 5 5 5 4 4 4 5 5 5 5 5 5 5 6 6 6 6 7 7 7 7 7 7 8 8 7 8 8 8 8 8 8 8 8 8 8
4 5 5 5 5 5 5 5 5 4 4 5 4 4 5 4 5 5 5 5 5 5 5 6 6 6 6 6 6 7 7 7 7 7 7 7 7 7 7 7 7 7 7 7
4 5 5 5 5 5 5 4 4 4 3 4 4 4 5 5 4 4 4 4 5 5 5 5 5 5 5 6 6 6 6 6 6 6 6 7 7 7 7 7 7 7 7 7
4 4 4 4 5 5 4 5 4 5 4 4 3 4 4 4 4 4 4 4 5 5 5 5 5 5 5 5 5 5 5 6 6 6 6 6 6 6 6 6 6 6 6 6
3 4 4 4 4 5 4 4 4 3 3 3 3 3 4 4 3 3 3 4 4 4 4 4 4 4 4 5 5 5 5 5 5 5 5 5 6 6 5 5 5 5 5 5
3 3 3 3 4 4 4 3 3 3 4 4 4 4 4 4 4 3 2 3 3 4 4 4 4 4 4 4 4 4 4 5 5 5 5 5 5 5 5 4 5 5 5 5
2 2 2 3 3 3 3 3 3 2 2 3 4 5 4 3 3 2 2 3 3 3 4 4 4 3 3 4 4 4 4 4 4 4 4 4 4 4 4 4 4 4 4 4
2 1 1 2 2 3 3 3 2 3 3 1 2 4 4 2 2 2 2 3 3 3 3 3 3 3 3 3 4 4 4 4 4 4 3 3 3 3 3 3 3 4 3 3
1 1 2 3 2 2 2 2 2 1 1 1 2 4 3 2 2 2 2 3 3 3 3 3 3 3 3 3 3 3 3 3 3 3 3 3 3 3 3 3 3 3 3 3
2 0 1 3 2 1 1 1 1 1 1 1 1 3 3 2 1 1 2 2 2 3 2 2 2 3 3 3 3 3 3 3 3 2 2 2 2 2 2 2 2 2 2 2
1 -0 -0 0 1 1 1 1 0 1 1 1 2 1 2 2 1 1 1 2 2 2 2 2 2 2 2 2 2 2 2 2 2 2 2 2 2 2 2 2 2 2 2 1
-1 -1 -1 -0 1 1 1 1 0 0 1 0 1 1 1 1 1 1 1 1 1 2 2 2 2 2 2 2 2 2 2 2 2 2 2 1 1 1 1 1 1 1 1 1
-1 -1 -0 -0 -0 1 1 1 0 0 -0 0 1 2 1 0 0 1 1 1 1 1 1 1 1 2 2 2 2 1 1 1 1 1 1 1 1 1 1 1 1 1 0 0
-2 -1 -1 -1 -0 1 2 0 0 0 -0 -1 -0 0 0 0 1 1 2 2 1 1 1 1 1 1 1 1 1 1 1 1 1 1 0 0 0 0 0 0 0 -0 -0 -0
-2 -1 -1 -1 -1 0 1 0 -1 -0 1 -0 -1 -1 -0 0 0 1 2 2 2 1 1 1 1 1 1 1 1 1 1 1 1 0 0 0 -0 -0 -0 -0 -0 -0 -1 -1
-2 -2 -2 -2 -0 1 2 0 -0 0 1 0 -0 -1 -1 -1 -1 0 2 1 1 1 1 1 0 0 1 0 0 0 0 0 0 0 0 -0 -0 -0 -1 -1 -1 -1 -1 -1
-2 -3 -2 -2 -1 -0 0 -1 0 1 1 1 1 0 -0 -1 0 1 1 1 1 1 0 0 0 0 0 0 -0 -0 -0 0 0 -0 -0 -0 -1 -1 -1 -1 -1 -1 -2 -2
-3 -3 -3 -3 -2 -0 -1 -1 -0 1 1 1 1 1 1 1 1 1 0 0 0 0 0 -0 -0 -0 -0 -0 -0 -0 -0 -0 -1 -0 -1 -1 -1 -1 -1 -1 -2 -2 -2 -2
-3 -3 -3 -2 -0 -0 -0 0 1 1 1 1 1 1 1 0 0 -0 -0 -0 -0 -0 -0 -1 -1 -1 -1 -1 -1 -1 -1 -1 -1 -1 -1 -1 -1 -1 -2 -2 -2 -2 -2 -2
-4 -4 -4 -3 -2 -1 -0 1 1 1 1 1 1 1 0 0 -0 -0 -1 -1 -1 -1 -1 -1 -1 -1 -1 -1 -1 -1 -1 -2 -2 -2 -2 -2 -2 -2 -2 -2 -2 -2 -2 -3
-3 -5 -4 -4 -3 -2 0 1 2 1 1 1 1 0 0 -0 -1 -1 -1 -1 -1 -1 -1 -1 -2 -2 -2 -2 -2 -2 -2 -2 -2 -2 -2 -2 -2 -3 -3 -3 -3 -3 -3 -3
-4 -4 -4 -2 -1 -2 0 1 1 1 0 0 0 -0 -0 -0 -1 -1 -1 -1 -1 -1 -2 -2 -2 -2 -2 -2 -2 -2 -2 -2 -2 -2 -2 -3 -3 -3 -3 -3 -3 -3 -3 -3
Wind_Speed
2 3 3 5 5 3 3 3 4 5 2 2 5 8 9 6 3 5 5 4 4 5 4 3 2 2 1 1 2 2 2 1 1 1 1 1 1 1 1 2 3 2 2 2
3 3 5 3 3 2 2 2 4 5 2 2 5 9 8 6 5 6 6 5 5 4 3 2 2 1 2 3 3 2 2 2 2 2 2 1 2 1 1 2 3 3 2 1
5 3 2 2 2 3 3 5 5 4 4 2 4 7 6 4 3 4 4 5 4 4 4 3 2 2 2 2 3 2 2 2 2 2 2 2 2 2 1 2 1 3 2 1
3 4 1 2 3 4 5 4 4 3 2 4 1 5 7 5 5 5 5 4 4 4 3 2 2 1 2 2 2 2 2 2 2 2 3 3 2 1 1 1 0 1 2 1
3 1 2 3 4 5 4 2 2 2 2 3 1 3 8 2 6 7 6 4 4 3 3 2 2 1 1 1 1 1 2 2 2 2 3 3 2 2 1 1 1 1 1 2
3 2 2 3 2 3 2 3 3 3 2 3 4 4 7 3 5 6 4 3 3 2 1 0 0 1 2 2 1 1 2 2 2 2 2 3 3 2 1 1 1 1 1 1
4 3 1 1 1 1 2 3 2 3 2 5 2 4 8 5 4 4 4 4 2 1 1 0 1 1 1 1 1 1 1 1 1 1 1 2 3 3 3 3 3 2 2 2
2 5 3 1 3 3 3 5 5 4 5 5 1 6 7 2 3 4 3 2 1 1 1 1 1 1 0 0 1 1 1 1 1 0 1 2 2 2 2 2 2 3 3 3
2 4 2 1 1 4 4 3 3 4 1 3 5 6 7 2 3 4 2 1 0 0 0 1 1 0 1 1 1 1 1 0 1 1 1 2 1 1 2 2 2 2 3 3
2 3 4 3 1 1 3 5 3 3 2 4 6 5 4 4 5 4 3 2 2 1 1 1 1 1 1 1 1 1 1 1 1 1 2 2 2 2 2 2 2 3 3 3
1 2 4 2 3 3 3 3 3 3 3 4 4 6 4 4 3 3 4 3 2 2 2 2 2 1 1 1 1 1 1 1 1 2 2 2 2 2 2 2 3 3 3 3
0 1 3 5 3 1 2 4 5 3 4 4 4 7 2 1 1 2 4 3 2 2 2 1 1 1 1 1 2 2 2 2 3 2 2 2 2 2 2 3 3 3 3 3
0 1 2 4 2 1 1 2 2 2 2 4 5 7 2 2 3 3 4 4 3 2 1 1 1 2 2 3 3 3 3 3 3 2 2 2 2 3 3 3 3 3 3 3
1 2 4 6 5 2 3 4 3 4 3 5 8 9 8 7 6 7 6 5 4 3 2 2 2 3 3 3 3 4 4 3 2 2 2 3 3 4 4 4 3 3 3 3
2 2 4 6 6 4 5 7 7 8 7 8 8 8 11 9 7 6 6 4 4 4 4 3 3 3 3 3 3 3 3 3 3 3 3 4 4 4 3 3 3 3 3 3
1 1 2 4 4 4 6 8 8 9 7 9 9 11 9 7 4 5 5 4 5 6 5 4 4 4 4 4 4 4 4 3 3 3 4 4 3 4 4 4 3 3 3 3
1 2 0 4 5 4 7 8 9 6 7 8 10 10 5 5 6 6 5 5 6 6 6 5 5 5 5 5 4 5 5 3 3 4 4 4 4 4 4 4 3 3 3 3
4 3 1 2 2 5 6 2 6 6 7 8 8 7 6 6 7 6 6 5 6 6 6 5 5 5 5 5 4 4 4 4 4 5 5 5 4 4 4 4 4 4 4 4
4 4 2 1 3 7 6 3 3 5 6 6 8 9 7 4 4 5 5 4 5 6 6 5 5 5 5 5 4 4 4 4 4 5 6 5 5 5 5 5 5 4 4 4
1 2 3 2 3 5 5 2 1 2 5 4 5 7 5 0 3 6 4 3 4 4 4 4 4 4 4 4 3 3 5 4 5 6 6 5 5 5 6 5 5 4 4 4
1 1 3 4 5 7 5 2 2 2 5 3 4 5 4 5 6 5 4 4 4 4 4 3 3 4 5 4 3 4 5 6 6 5 5 5 5 5 5 4 4 4 4 4
5 4 4 4 4 7 2 3 5 6 4 3 4 4 4 5 5 5 4 4 4 4 4 3 3 5 5 4 3 4 6 6 4 4 4 4 4 4 3 3 4 4 4 4
6 7 5 7 8 5 4 6 6 4 5 6 5 5 4 5 5 5 4 4 4 4 4 3 3 5 5 4 3 4 6 5 4 4 4 4 4 3 3 3 3 3 4 4
5 3 4 6 9 8 8 7 7 7 7 7 6 6 5 6 6 5 5 4 4 4 4 3 3 4 5 5 4 4 5 4 3 4 4 3 3 3 3 3 3 4 4 4
6 5 4 8 9 8 8 7 7 7 6 6 5 5 5 5 5 5 5 5 4 4 3 3 3 4 6 6 5 4 4 3 3 3 3 3 3 3 2 3 3 4 5 5
6 7 7 9 8 6 8 6 5 6 7 6 5 4 4 4 5 5 5 5 4 4 3 4 4 5 5 5 6 5 4 3 3 3 3 2 2 2 2 2 3 5 5 7
Wind_Direction
46 82 210 220 202 198 176 193 256 267 285 251 251 265 273 271 273 273 272 263 258 259 274 289 277 246 211 158 147 145 108 103 108 126 147 159 145 127 96 55 53 79 84 99
58 251 245 216 187 180 183 238 266 291 316 256 273 275 271 263 249 247 253 259 256 265 291 290 276 203 189 177 172 159 149 149 151 167 172 172 149 130 108 43 39 43 61 79
185 245 241 174 185 198 236 219 239 265 324 317 305 298 272 271 248 262 260 261 257 241 242 247 224 195 185 179 186 176 165 150 151 132 111 79 83 81 57 27 17 11 27 58
224 267 232 194 213 192 242 225 224 249 305 297 11 295 288 279 289 283 278 274 261 251 244 237 218 205 202 207 196 168 152 135 144 140 139 128 138 157 193 204 250 348 11 26
240 236 203 223 227 189 221 213 191 212 209 300 299 243 287 306 286 281 275 268 263 246 216 216 211 219 210 188 179 172 145 132 140 148 157 162 171 187 176 146 184 239 337 359
246 241 204 222 235 185 166 67 60 56 86 275 230 200 283 253 257 289 284 269 256 244 222 222 16 45 31 45 75 118 150 149 150 155 170 184 189 184 172 184 209 236 250 280
309 276 258 149 89 81 106 98 34 353 330 253 204 212 255 261 265 276 280 268 253 220 180 130 72 67 50 45 45 53 108 116 141 153 194 220 211 199 202 209 215 227 238 262
254 279 246 205 180 181 185 156 165 205 237 278 255 237 255 266 295 299 283 254 202 177 154 183 213 192 194 3 38 53 65 41 37 348 254 260 227 212 220 227 227 230 236 241
208 260 309 253 223 154 158 187 162 140 171 277 266 279 298 306 332 338 334 5 321 234 177 232 256 234 222 248 259 237 234 309 329 311 306 294 273 242 237 236 238 237 238 241
168 265 298 301 82 17 159 148 122 146 180 258 283 271 262 299 305 322 324 307 309 328 327 311 286 271 263 250 261 274 258 258 287 293 289 299 303 290 262 242 248 251 254 253
112 196 305 338 196 197 143 147 151 154 172 184 262 270 231 229 266 296 303 289 287 285 277 275 282 282 282 298 288 283 285 292 289 285 286 291 288 286 275 261 253 253 256 252
123 146 263 258 260 281 192 185 167 184 226 198 215 266 284 206 279 298 302 309 291 279 278 265 271 296 303 292 283 278 280 273 267 269 271 268 272 274 271 272 268 262 259 260
122 113 342 333 329 1 238 207 180 142 151 186 210 260 312 3 336 318 307 312 320 309 293 290 288 288 281 275 271 268 267 266 267 261 264 275 279 274 267 266 269 266 263 271
90 172 202 225 248 220 250 240 199 173 201 227 230 258 286 302 309 312 308 302 306 302 295 291 285 280 282 280 278 273 270 263 264 265 263 264 265 264 262 261 262 264 261 260
105 219 248 264 272 250 242 240 221 214 214 222 247 250 268 277 280 284 290 298 304 305 303 297 292 288 288 290 286 276 274 272 268 262 262 262 264 265 262 261 262 260 252 260
100 210 282 285 275 266 267 248 228 231 234 241 261 268 264 273 276 282 286 284 287 294 297 295 291 290 287 280 279 278 274 270 262 258 262 264 258 259 260 259 259 258 259 262
190 162 243 273 299 319 274 239 214 215 214 208 233 249 269 283 279 274 273 269 273 282 287 285 284 281 280 277 270 268 267 270 262 259 261 261 254 254 259 261 254 255 255 258
180 170 190 271 355 250 250 218 194 213 239 222 241 257 257 260 276 274 258 254 271 280 282 285 285 287 288 285 281 275 273 264 260 260 257 254 248 250 257 251 245 249 255 257
195 176 172 186 252 275 290 261 190 203 265 228 232 257 271 283 314 292 258 244 258 270 272 275 278 280 282 281 277 275 271 265 262 259 253 250 245 248 254 251 248 249 252 258
88 159 170 177 233 251 267 292 234 139 284 260 219 245 253 279 304 280 277 283 285 289 287 289 298 297 286 282 284 276 271 264 260 262 259 253 247 244 247 247 248 252 255 258
132 163 199 207 239 264 269 289 115 162 265 282 231 239 223 221 238 268 298 299 287 291 290 289 296 291 282 284 283 275 274 265 268 274 273 262 252 247 243 245 246 246 255 261
190 186 203 181 221 258 243 134 189 232 279 281 262 248 244 253 272 281 284 286 289 296 297 298 299 297 296 288 271 276 273 276 286 285 276 263 259 255 246 240 246 244 245 253
208 201 203 206 227 262 216 227 249 255 269 268 256 255 252 259 268 273 274 279 284 285 287 293 291 300 307 299 269 270 284 294 295 286 277 268 265 263 251 242 250 252 246 252
251 221 220 256 266 265 261 263 269 262 256 260 252 253 247 250 259 266 271 275 284 286 288 297 305 305 306 306 295 274 287 292 284 278 278 276 264 269 272 261 252 251 247 252
228 193 228 259 275 292 274 254 263 269 265 266 265 253 242 245 261 262 268 273 276 283 291 292 292 292 297 304 303 297 288 283 277 276 274 277 272 266 270 275 268 265 252 250
203 197 205 243 244 240 269 274 272 268 268 260 257 266 263 240 250 263 266 268 273 279 283 289 290 291 297 305 305 305 299 278 268 278 277 276 278 278 278 283 301 293 288 284
Height
1491 1495 1497 1496 1496 1497 1498 1501 1501 1498 1495 1496 1494 1492 1487 1485 1485 1484 1483 1482 1482 1481 1482 1483 1484 1484 1485 1487 1488 1489 1491 1492 1494 1495 1496 1497 1499 1500 1502 1503 1504 1505 1506 1507
1495 1497 1494 1494 1495 1496 1498 1500 1500 1497 1495 1495 1494 1490 1484 1482 1482 1481 1479 1478 1478 1478 1478 1479 1480 1481 1482 1484 1485 1487 1488 1490 1491 1493 1494 1495 1497 1498 1499 1500 1501 1502 1503 1504
1494 1494 1492 1494 1495 1496 1497 1499 1498 1499 1496 1495 1495 1488 1482 1478 1478 1477 1476 1475 1475 1475 1475 1476 1477 1478 1480 1481 1482 1484 1485 1487 1488 1490 1492 1493 1494 1495 1496 1497 1498 1499 1500 1501
1494 1492 1492 1493 1494 1495 1496 1494 1495 1497 1500 1500 1498 1496 1481 1478 1476 1474 1473 1472 1472 1472 1473 1474 1475 1476 1477 1479 1480 1482 1483 1484 1486 1488 1489 1489 1490 1491 1492 1493 1495 1496 1497 1498
1493 1492 1492 1492 1492 1493 1494 1492 1495 1496 1499 1502 1500 1501 1484 1479 1476 1472 1471 1470 1470 1470 1471 1472 1473 1474 1475 1476 1478 1479 1481 1482 1483 1485 1486 1487 1488 1489 1490 1491 1492 1493 1494 1494
1492 1491 1491 1490 1490 1491 1492 1494 1496 1500 1502 1502 1498 1500 1486 1481 1474 1470 1469 1468 1468 1469 1470 1470 1471 1472 1473 1475 1476 1477 1478 1479 1480 1482 1483 1484 1485 1485 1486 1487 1488 1489 1490 1490
1493 1491 1489 1489 1491 1491 1493 1498 1505 1505 1509 1501 1496 1496 1484 1473 1471 1469 1468 1467 1467 1468 1468 1469 1469 1470 1471 1473 1474 1475 1475 1476 1478 1479 1480 1481 1481 1481 1482 1483 1483 1484 1485 1485
1496 1495 1490 1489 1490 1491 1493 1495 1503 1505 1506 1501 1497 1493 1479 1472 1470 1468 1467 1466 1467 1467 1468 1468 1469 1470 1470 1471 1472 1473 1473 1473 1474 1475 1477 1477 1478 1478 1478 1479 1479 1480 1480 1481
1497 1495 1490 1489 1488 1489 1492 1495 1495 1503 1507 1505 1495 1489 1477 1470 1468 1466 1466 1466 1466 1466 1467 1468 1468 1469 1469 1469 1470 1471 1471 1471 1471 1472 1473 1474 1474 1474 1474 1475 1476 1476 1476 1477
1496 1497 1492 1490 1489 1489 1490 1493 1499 1501 1502 1498 1492 1489 1479 1471 1468 1467 1466 1466 1465 1466 1466 1467 1468 1468 1468 1469 1469 1469 1469 1468 1469 1469 1470 1470 1470 1471 1471 1471 1471 1472 1472 1473
1496 1498 1496 1492 1491 1490 1492 1494 1496 1500 1501 1501 1495 1482 1472 1470 1468 1468 1466 1465 1465 1465 1466 1466 1467 1467 1467 1467 1467 1466 1466 1466 1466 1466 1466 1467 1467 1467 1467 1467 1467 1468 1468 1469
1496 1498 1498 1494 1490 1489 1489 1490 1494 1496 1498 1502 1500 1484 1468 1468 1467 1467 1465 1464 1464 1464 1464 1465 1465 1465 1465 1465 1465 1464 1464 1464 1464 1464 1464 1464 1463 1463 1463 1463 1463 1464 1464 1464
1496 1499 1498 1493 1494 1493 1492 1491 1493 1496 1498 1502 1497 1480 1468 1468 1467 1466 1465 1464 1463 1463 1463 1463 1462 1462 1462 1462 1462 1461 1461 1461 1460 1460 1460 1460 1459 1459 1459 1459 1459 1459 1460 1460
1494 1498 1499 1494 1489 1492 1492 1491 1492 1494 1497 1497 1490 1477 1469 1468 1467 1466 1465 1464 1463 1461 1461 1460 1460 1459 1458 1458 1458 1457 1457 1457 1457 1456 1456 1456 1455 1456 1456 1456 1456 1456 1456 1456
1494 1498 1497 1494 1492 1491 1489 1488 1489 1490 1488 1488 1479 1478 1469 1467 1467 1465 1463 1462 1461 1459 1458 1458 1457 1456 1456 1455 1454 1454 1454 1453 1453 1452 1452 1452 1452 1452 1452 1452 1452 1452 1452 1452
1495 1498 1497 1494 1490 1488 1485 1482 1484 1484 1484 1482 1479 1474 1465 1465 1464 1463 1461 1460 1458 1457 1456 1455 1454 1454 1452 1451 1451 1450 1450 1449 1449 1449 1448 1448 1447 1447 1447 1447 1447 1447 1447 1447
1496 1497 1497 1494 1491 1486 1482 1475 1477 1477 1476 1476 1473 1467 1463 1463 1461 1460 1459 1457 1456 1455 1454 1453 1452 1450 1449 1448 1447 1446 1446 1446 1445 1445 1444 1443 1443 1442 1443 1443 1443 1443 1442 1443
1494 1495 1497 1496 1493 1486 1471 1469 1469 1471 1469 1469 1466 1462 1461 1460 1458 1457 1456 1455 1453 1452 1451 1450 1449 1447 1446 1445 1444 1443 1442 1441 1441 1440 1439 1439 1438 1438 1438 1438 1438 1438 1438 1438
1490 1493 1496 1497 1493 1482 1471 1468 1469 1469 1465 1462 1462 1460 1458 1458 1457 1454 1453 1452 1451 1450 1448 1447 1446 1444 1443 1442 1440 1439 1438 1437 1436 1435 1434 1434 1434 1434 1434 1434 1434 1434 1434 1433
1490 1492 1495 1495 1490 1479 1468 1466 1464 1467 1465 1459 1458 1457 1457 1457 1459 1453 1450 1449 1448 1447 1445 1444 1442 1441 1440 1438 1437 1435 1433 1432 1431 1430 1430 1430 1430 1430 1429 1429 1429 1429 1429 1429
1492 1494 1494 1493 1490 1477 1467 1465 1465 1470 1464 1457 1456 1455 1455 1454 1453 1450 1448 1447 1445 1444 1443 1441 1439 1438 1436 1435 1433 1431 1430 1428 1427 1427 1426 1426 1426 1425 1425 1425 1425 1425 1425 1425
1489 1491 1492 1492 1489 1476 1464 1464 1465 1461 1457 1455 1454 1453 1452 1451 1449 1447 1445 1444 1442 1441 1439 1438 1436 1435 1433 1432 1430 1428 1426 1425 1424 1423 1422 1422 1422 1422 1422 1421 1421 1421 1420 1420
1484 1481 1480 1478 1471 1462 1460 1459 1458 1457 1455 1453 1452 1450 1450 1448 1446 1444 1442 1441 1440 1438 1436 1435 1433 1431 1430 1428 1427 1425 1424 1422 1421 1420 1419 1418 1418 1418 1418 1417 1416 1416 1416 1415
1477 1475 1475 1472 1463 1458 1457 1456 1455 1453 1452 1450 1449 1448 1446 1444 1443 1441 1440 1438 1437 1435 1433 1432 1430 1428 1427 1425 1424 1422 1421 1419 1418 1417 1416 1415 1415 1414 1414 1413 1413 1412 1411 1410
1470 1472 1471 1467 1459 1455 1452 1451 1450 1449 1448 1446 1444 1444 1442 1441 1439 1438 1436 1435 1434 1432 1431 1429 1427 1425 1424 1422 1421 1420 1418 1417 1415 1414 1413 1412 1412 1411 1410 1410 1409 1408 1407 1407
1462 1463 1464 1458 1453 1453 1449 1448 1447 1446 1444 1442 1441 1440 1439 1438 1437 1435 1434 1432 1431 1429 1428 1426 1425 1423 1422 1420 1418 1417 1416 1414 1413 1412 1411 1409 1409 1408 1407 1406 1405 1405 1404 1403